Regional Weather Roundup
Issued by NWS Charleston, SC

Current Version | Previous Version | Graphics & Text | Print | Product List | Glossary On
Versions: 1 2 3 4 5 6 7 8 9 10 11 12 13 14 15 16 17 18 19 20 21 22 23 24 25 26 27 28 29 30 31 32 33 34 35 36 37 38 39 40 41 42 43 44 45 46 47 48 49 50
000
ASUS42 KCHS 182025
RWRCHS

REGIONAL WEATHER ROUNDUP
NATIONAL WEATHER SERVICE CHARLESTON SC
400 PM EDT FRI APR 18 2014

NOTE: "FAIR" INDICATES FEW OR NO CLOUDS BELOW 12,000 FEET WITH NO
SIGNIFICANT WEATHER AND/OR OBSTRUCTIONS TO VISIBILITY.

NOT ALL STATIONS ARE QUALITY CONTROLLED BY THE NATIONAL
WEATHER SERVICE. USE DATA WITH CAUTION...ESPECIALLY
DEWPOINT OBSERVATIONS.

SCZ027-030-031-034>040-042>050-182100-
...SOUTH CAROLINA...

CITY           SKY/WX    TMP DP  RH WIND       PRES   REMARKS
N CHARLESTON   LGT RAIN  65  54  67 E13G22    30.14F
WATERFRONT PRK   N/A     61 N/A N/A MISG        N/A
FORT JOHNSON     N/A     59  55  88 E14G26    30.19F
MOUNT PLEASANT MOCLDY   N/A N/A N/A NE10G23   30.14F
JOHNS ISLAND   RAIN      59  57  94 NE14G26   30.13F VSB 3/4
PINOPOLIS        N/A     66  55  68 E16       30.08F
MONCKS CORNER  CLOUDY    66  59  77 NE13G21   30.15F
SUMMERVILLE    DRIZZLE   61  55  82 N3        30.16R
BEAUFORT MCAS  HVY RAIN  59  57  93 E9        30.08F FOG
BEAUFORT ARPT  RAIN      59  59 100 NE21G36   30.08F
HILTON HEAD IS RAIN      57  57 100 N18G26    30.09F
GEORGETOWN     NOT AVBL
WALTERBORO     RAIN      55 N/A N/A N6        30.15F
ORANGEBURG     LGT RAIN  56  48  74 NE9       30.19S
BARNWELL       HVY RAIN  54  52  94 NE12      30.19R
AIKEN          RAIN      54  54 100 NE12      30.22F
MANNING        CLOUDY    61  52  72 NE6       30.18F
KINGSTREE      NOT AVBL
COLUMBIA       LGT RAIN  58  49  72 NE5       30.21F
SUMTER         LGT RAIN  59  46  63 NE17      30.17F
FLORENCE       CLOUDY    61  50  67 NE13      30.20F
MYRTLE BEACH   PTSUNNY   64  54  68 NE16      30.19F
N MYRTLE BEACH CLOUDY    66  52  60 NE16      30.20F

$$

GAZ063-065-086>088-099>101-113>116-118-119-134-136>141-150-182100-
...GEORGIA...

CITY           SKY/WX    TMP DP  RH WIND       PRES   REMARKS
SAVANNAH ARPT  HVY RAIN  57  54  88 NE15G21   30.06F FOG
HUNTER AAF     HVY RAIN  59  59 100 NE8       30.03F FOG
FORT STEWART   HVY RAIN  57  57 100 NE13      30.05F FOG
STATESBORO     NOT AVBL
SYLVANIA       RAIN      56  54  91 NE13G22   30.10F
CLAXTON        HVY RAIN  55  55 100 NE13G20   30.08F
THOMSON        CLOUDY    52  52 100 N9        30.24F
AUGUSTA-BUSH   LGT RAIN  54  50  86 N9        30.18F FOG
AUGUSTA-DANIEL RAIN      54  51  90 N10       30.19F FOG
SWAINSBORO     HVY RAIN  52  52 100 NE12G20   30.12F
VIDALIA        HVY RAIN  54  52  94 NE14G23   30.12R
ALMA           RAIN      55  52  89 NE8       30.06S FOG
WAYCROSS       NOT AVBL
JESUP          RAIN      55  55 100 NE13G18   30.03F
BRUNSWICK      CLOUDY    63  63 100 N9G18     30.03S
SAINT SIMONS   HVY RAIN  64  63  96 NE15G29   30.00S VSB 1

$$

SCZ027-028-034-036>038-045-046-048>050-GAZ119-141-182100-
...LAKE AND SUPPLEMENTAL COASTAL OBSERVATIONS...

STATION/POSITION TIME  TEMP    WIND        PRES    WAVE   SWELL
                       AIR SEA DIR/SP/G            HT/PER HT/PER/DIR
                 (UTC) (F)     (DEG/KT/KT) (MB)    (FT/S) (FT/S/D)
UPR LAKE MARION  NOT AVBL
WINYAH BAY       2000   62      60/ 17     1022.0S
LAKE MURRAY      2000   58      20/  3/  8 1022.7S
ACE BASIN NERRS  2000   60      60/  4     1020.0S
FORT PULASKI     2000   59 59   30/ 20/ 26 1017.8F
SAPELO ISLAND    2000   62      20/ 16     1016.0S

$$

ANZ835-935-AMZ111-154-330-350-352-354-374-450-454-472-182100-
...C-MAN AND BUOY OBSERVATIONS...

STATION/POSITION TIME  TEMP    WIND        PRES    WAVE   SWELL
                       AIR SEA DIR/SP/G            HT/PER HT/PER/DIR
                 (UTC) (F)     (DEG/KT/KT) (MB)    (FT/S) (FT/S/D)
FOLLY BEACH CMAN 2000   59      50/ 25/ 30 1020.9F
BUOY 41004       NOT AVBL
BUOY 41008       2000   66 65   70/ 19/ 23 1014.7F   8/ 7   3/ 70/10
5E ST. MARYS GA  2000      64                N/A     6/ 7   2/ 90/11
FRYING PAN BUOY  2000   61 64   60/ 23/ 29 1022.0F   8/ 6   3/ 90/10
BUOY 41025       NOT AVBL
CAPE LOOKOUT NC  2000   56      40/ 23/ 26 1024.5F
BUOY 41002       NOT AVBL
BUOY 41010       2000   76 77  130/ 16/ 17 1017.9F   8/10   7/ 50/10
BUOY 41012       NOT AVBL
ST AUGUSTINE FL  2000   67     170/  9/ 10 1015.6F
CAPERS NEARSHORE 1900           70/ 23/ 29   N/A
FRIPP NEARSHORE  1900   59      80/ 27/ 35   N/A


$$


USA.gov is the U.S. government's official web portal to all federal, state and local government web resources and services.